Date String (YYYY-MM-DD hh:mm:ss) UTC,Instrument flags,absolute air pressure of the measurement (hPa),sample flow rate (lpm),inlet stack bypass flow (lpm),air temperature of the measurement (°C),ambient temperature measured by the external sensor (°C),aerosol sample conditioner tube jacket temperature (°C),OPC LED temperature (°C),internal box temperature (°C),relative humidity of the measurement (%),span deviation,mass concentration of particles derived from Lorenz-Mie calculation of OPC scattering (μg/m³),mass concentration of particles derived from Lorenz-Mie calculation of OPC scattering (μg/m³),mass concentration of particles derived from Lorenz-Mie calculation of OPC scattering (μg/m³)
DateTimeUTC,F1_M11,P_M11,Q1_M11,Q2_M11,T1_M11,T2_M11,T3_M11,T4_M11,T5_M11,U1_M11,ZSPAN_M11,X0_M11,X2_M11,X1_M11
2023-11-09 05:00:00,SystemResetWarning,0835.3,4.99,000.00,019.8,019.0,000.0,028.3,020.8,25.1,0000.0,0003.58,0002.47,0002.03
2023-11-09 05:01:00,SystemResetWarning,0835.4,5.00,000.00,019.7,019.0,000.0,028.3,020.7,25.1,0000.0,0003.66,0002.47,0002.00
2023-11-09 05:02:00,SystemResetWarning,0835.4,5.01,000.00,019.7,019.0,000.0,028.2,020.7,25.1,0000.0,0003.85,0002.46,0001.98
2023-11-09 05:03:00,SystemResetWarning,0835.3,5.01,000.00,019.7,019.0,000.0,028.2,020.7,25.1,0000.0,0003.88,0002.46,0001.97
2023-11-09 05:04:00,SystemResetWarning,0835.3,5.00,000.00,019.7,019.0,000.0,028.2,020.7,25.1,0000.0,0003.82,0002.43,0001.96
2023-11-09 05:05:00,SystemResetWarning,0835.3,5.01,000.00,019.7,018.9,000.0,028.2,020.7,25.1,0000.0,0003.74,0002.41,0001.95
2023-11-09 05:06:00,SystemResetWarning,0835.3,5.00,000.00,019.7,018.9,000.0,028.2,020.7,25.1,0000.0,0003.83,0002.42,0001.95
2023-11-09 05:07:00,SystemResetWarning,0835.3,5.00,000.00,019.7,018.9,000.0,028.2,020.7,25.1,0000.0,0003.90,0002.42,0001.95
2023-11-09 05:08:00,SystemResetWarning,0835.4,4.99,000.00,019.6,018.9,000.0,028.2,020.6,25.1,0000.0,0003.92,0002.44,0001.96
2023-11-09 05:09:00,SystemResetWarning,0835.4,5.00,000.00,019.6,018.9,000.0,028.2,020.6,25.1,0000.0,0003.91,0002.46,0001.96
2023-11-09 05:10:00,SystemResetWarning,0835.4,5.00,000.00,019.6,018.9,000.0,028.1,020.6,25.1,0000.0,0003.95,0002.48,0001.97
2023-11-09 05:11:00,SystemResetWarning,0835.4,5.00,000.00,019.6,018.9,000.0,028.1,020.6,25.1,0000.0,0003.93,0002.49,0001.98
2023-11-09 05:12:00,SystemResetWarning,0835.5,5.00,000.00,019.6,018.9,000.0,028.1,020.6,25.1,0000.0,0003.86,0002.50,0002.02
2023-11-09 05:13:00,SystemResetWarning,0835.5,5.00,000.00,019.6,018.9,000.0,028.1,020.6,25.2,0000.0,0003.68,0002.53,0002.05
2023-11-09 05:14:00,SystemResetWarning,0835.5,5.00,000.00,019.6,018.8,000.0,028.1,020.6,25.1,0000.0,0003.71,0002.57,0002.08
2023-11-09 05:15:00,SystemResetWarning,0835.5,5.00,000.00,019.6,018.8,000.0,028.1,020.6,25.2,0000.0,0003.73,0002.60,0002.11
2023-11-09 05:16:00,SystemResetWarning,0835.5,4.99,000.00,019.5,018.8,000.0,028.1,020.5,25.2,0000.0,0003.65,0002.60,0002.13
2023-11-09 05:17:00,SystemResetWarning,0835.6,5.00,000.00,019.5,018.8,000.0,028.0,020.5,25.2,0000.0,0003.60,0002.64,0002.17
2023-11-09 05:18:00,SystemResetWarning,0835.5,5.00,000.00,019.5,018.8,000.0,028.0,020.5,25.2,0000.0,0003.55,0002.69,0002.22
2023-11-09 05:19:00,SystemResetWarning,0835.5,5.01,000.00,019.5,018.8,000.0,028.0,020.5,25.1,0000.0,0003.49,0002.70,0002.25
2023-11-09 05:20:00,SystemResetWarning,0835.5,5.01,000.00,019.5,018.8,000.0,028.0,020.4,25.1,0000.0,0003.78,0002.76,0002.28
2023-11-09 05:21:00,SystemResetWarning,0835.5,5.00,000.00,019.5,018.8,000.0,028.0,020.4,25.1,0000.0,0004.18,0002.81,0002.32
2023-11-09 05:22:00,SystemResetWarning,0835.5,5.00,000.00,019.5,018.8,000.0,028.0,020.4,25.0,0000.0,0004.29,0002.84,0002.35
2023-11-09 05:23:00,SystemResetWarning,0835.5,5.00,000.00,019.4,018.8,000.0,028.0,020.4,25.0,0000.0,0004.29,0002.85,0002.36
2023-11-09 05:24:00,SystemResetWarning,0835.5,4.99,000.00,019.4,018.8,000.0,028.0,020.4,25.0,0000.0,0004.33,0002.89,0002.38
2023-11-09 05:25:00,SystemResetWarning,0835.5,4.99,000.00,019.4,018.8,000.0,027.9,020.4,24.9,0000.0,0004.32,0002.92,0002.41
2023-11-09 05:26:00,SystemResetWarning,0835.5,5.00,000.00,019.4,018.7,000.0,027.9,020.4,24.9,0000.0,0004.36,0002.95,0002.43
2023-11-09 05:27:00,SystemResetWarning,0835.5,5.01,000.00,019.4,018.7,000.0,027.9,020.4,24.9,0000.0,0004.52,0002.99,0002.44
2023-11-09 05:28:00,SystemResetWarning,0835.5,5.01,000.00,019.4,018.7,000.0,027.9,020.4,24.9,0000.0,0004.87,0003.00,0002.45
2023-11-09 05:29:00,SystemResetWarning,0835.5,5.00,000.00,019.4,018.7,000.0,027.9,020.4,24.9,0000.0,0004.85,0002.97,0002.44
2023-11-09 05:30:00,SystemResetWarning,0835.5,5.00,000.00,019.4,018.7,000.0,027.9,020.4,24.9,0000.0,0004.97,0003.00,0002.44
2023-11-09 05:31:00,SystemResetWarning,0835.5,5.00,000.00,019.4,018.7,000.0,027.9,020.4,24.9,0000.0,0005.08,0003.02,0002.45
2023-11-09 05:32:00,SystemResetWarning,0835.5,4.99,000.00,019.4,018.7,000.0,027.9,020.4,25.0,0000.0,0004.58,0002.97,0002.45
2023-11-09 05:33:00,SystemResetWarning,0835.5,5.00,000.00,019.3,018.7,000.0,027.8,020.3,24.9,0000.0,0004.43,0002.95,0002.45
2023-11-09 05:34:00,SystemResetWarning,0835.5,4.99,000.00,019.3,018.7,000.0,027.8,020.3,25.0,0000.0,0004.39,0002.94,0002.45
2023-11-09 05:35:00,SystemResetWarning,0835.5,5.00,000.00,019.3,018.7,000.0,027.8,020.3,25.0,0000.0,0004.42,0002.94,0002.45
2023-11-09 05:36:00,SystemResetWarning,0835.5,5.01,000.00,019.3,018.7,000.0,027.8,020.3,24.9,0000.0,0004.47,0002.93,0002.46
2023-11-09 05:37:00,SystemResetWarning,0835.5,5.01,000.00,019.3,018.7,000.0,027.8,020.3,25.0,0000.0,0004.45,0002.91,0002.45
2023-11-09 05:38:00,SystemResetWarning,0835.5,5.00,000.00,019.3,018.6,000.0,027.8,020.3,25.0,0000.0,0004.50,0002.92,0002.45
2023-11-09 05:39:00,SystemResetWarning,0835.4,4.99,000.00,019.3,018.6,000.0,027.8,020.3,25.0,0000.0,0004.34,0002.91,0002.45
2023-11-09 05:40:00,SystemResetWarning,0835.3,4.99,000.00,019.3,018.6,000.0,027.8,020.3,25.0,0000.0,0004.45,0002.95,0002.46
2023-11-09 05:41:00,SystemResetWarning,0835.4,4.99,000.00,019.3,018.6,000.0,027.8,020.3,25.0,0000.0,0004.72,0002.97,0002.47
2023-11-09 05:42:00,SystemResetWarning,0835.3,5.00,000.00,019.3,018.6,000.0,027.8,020.3,25.0,0000.0,0004.59,0002.96,0002.47
2023-11-09 05:43:00,SystemResetWarning,0835.3,5.01,000.00,019.3,018.6,000.0,027.7,020.4,25.0,0000.0,0004.53,0002.94,0002.46
2023-11-09 05:44:00,SystemResetWarning,0835.3,5.01,000.00,019.3,018.6,000.0,027.7,020.3,25.0,0000.0,0004.43,0002.89,0002.44
2023-11-09 05:45:00,SystemResetWarning,0835.3,5.01,000.00,019.3,018.6,000.0,027.7,020.3,25.0,0000.0,0004.44,0002.89,0002.42
2023-11-09 05:46:00,SystemResetWarning,0835.2,5.00,000.00,019.3,018.6,000.0,027.7,020.3,25.0,0000.0,0004.74,0002.89,0002.41
2023-11-09 05:47:00,SystemResetWarning,0835.3,4.98,000.00,019.3,018.6,000.0,027.7,020.3,25.0,0000.0,0004.79,0002.85,0002.38
2023-11-09 05:48:00,SystemResetWarning,0835.2,4.99,000.00,019.3,018.5,000.0,027.7,020.4,25.0,0000.0,0004.67,0002.79,0002.34
2023-11-09 05:49:00,SystemResetWarning,0835.2,5.01,000.00,019.2,018.5,000.0,027.7,020.3,25.0,0000.0,0004.53,0002.73,0002.32
2023-11-09 05:50:00,SystemResetWarning,0835.3,5.01,000.00,019.2,018.5,000.0,027.7,020.3,25.0,0000.0,0004.29,0002.68,0002.29
2023-11-09 05:51:00,SystemResetWarning,0835.3,5.00,000.00,019.2,018.5,000.0,027.7,020.3,25.0,0000.0,0004.05,0002.63,0002.27
2023-11-09 05:52:00,SystemResetWarning,0835.3,5.00,000.00,019.2,018.5,000.0,027.7,020.4,25.0,0000.0,0004.68,0002.56,0002.25
2023-11-09 05:53:00,SystemResetWarning,0835.3,5.00,000.00,019.2,018.5,000.0,027.7,020.3,25.0,0000.0,0005.17,0002.51,0002.23
2023-11-09 05:54:00,SystemResetWarning,0835.3,5.00,000.00,019.2,018.5,000.0,027.7,020.3,25.0,0000.0,0005.42,0002.51,0002.22
2023-11-09 05:55:00,SystemResetWarning,0835.3,4.99,000.00,019.2,018.5,000.0,027.7,020.3,25.0,0000.0,0005.38,0002.49,0002.22
2023-11-09 05:56:00,SystemResetWarning,0835.3,5.00,000.00,019.2,018.5,000.0,027.7,020.3,25.0,0000.0,0005.59,0002.53,0002.23
2023-11-09 05:57:00,SystemResetWarning,0835.3,5.01,000.00,019.2,018.5,000.0,027.7,020.4,25.0,0000.0,0005.94,0002.59,0002.24
2023-11-09 05:58:00,SystemResetWarning,0835.2,5.01,000.00,019.2,018.5,000.0,027.6,020.5,25.0,0000.0,0005.68,0002.59,0002.26
2023-11-09 05:59:00,SystemResetWarning,0835.2,5.00,000.00,019.2,018.5,000.0,027.6,020.5,25.0,0000.0,0005.95,0002.63,0002.27
